Location: Quebec
(46.8000°N, 71.2500°W)
Time: 13:21:24
(UTC-04:00)

Tiangong 2 - Pass Details

Date: 11 October 2017
Orbit: 388 x 391 km, 42.8° (Epoch: 23 October)

Event Time Altitude Azimuth Distance (km) Brightness Sun altitude
Exits shadow 06:11:05 - 241° (WSW) 1,483 3.5 -8.7°
Reaches altitude 10° 06:11:15 10° 240° (WSW) 1,420 3.4 -8.7°
Maximum altitude 06:14:13 36° 172° (S) 643 2.3 -8.2°
Drops below altitude 10° 06:17:12 10° 104° (ESE) 1,423 5.5 -7.7°
Sets 06:19:22 0° 95° (E) 2,280 7.7 -7.3°
